星链-32250 (STARLINK-32250)

导读

STARLINK-32250是美国太空探索技术公司SpaceX星链星座中的一员,于2024年8月12日发射升空。星链项目旨在构建全球卫星互联网星座,为全球范围内用户提供高速互联网接入服务。该卫星入轨后将加入庞大的星链网络,进一步完善星座覆盖能力,提升全球网络服务的覆盖密度与稳定性。

Basic Information
目录编号:
60425
目录名称:
STARLINK-32250
国际标识:
2024-144A
轨道中心:
EARTH
卫星名称:
星链-32250 (STARLINK-32250)
卫星全名:
星链-32250 (STARLINK-32250)
卫星状态:
在轨 (已飞行675 天)
发射日期:
2024-08-12 UTC
国别 :
美国 (US)
星等 :
--
Orbit Information
数据来源 国际轨道数据 AOE轨道数据
星历时间 2026-06-17T11:00:57+0800
21小时前
查看轨道信息
2026-06-17T02:00:00+0800
1天前
查看轨道信息
半长轴 6840.87km 6840.861km
偏心率 0.0001332 0.0001327
轨道倾角 53.162° 53.160°
近地点辐角 86.989° 75.116°
升交点赤经 115.241° 116.998°
平近点角 273.126° 8.758°
近地点 461.821km 461.816km
远地点 463.645km 463.632km
周期 93.848分钟 93.848分钟
每日圈数 15.343902 15.343931
Detailed Information
卫星平台:
Starlink v2.0 mini
运营商:
太空探索技术公司
运营商所在国:
美国
制造商(研发单位):
太空探索技术公司
制造商所在国:
美国
使用方式:
暂无
Satellite Introduction
星链(Starlink)计划是由太空探索技术公司(SpaceX)提出的一个巨型低轨卫星互联网星座项目,计划在2019年至2024年间在太空搭建由约1.2万颗卫星组成的“星链”网络,其中1584颗将部署在地球上空550千米处的近地轨道,并从2020年开始工作。该卫星仍在工作。
2D Orbit Map
3D Orbit Map
Orbit Altitude Analysis Chart
Orbit Inclination Analysis Chart
Orbit Comprehensive Analysis Chart
View Comprehensive Chart